Location: Chircca
(13.7944°S, 72.0608°W)
Time: 06:22:58
(UTC+00:00)

ARIANE 5 DEB (SYLDA) - Pass Details

Date: 14 July 2020
Orbit: 869 x 35950 km, 1.8° (Epoch: 14 August)

Event Time Altitude Azimuth Distance (km) Brightness Sun altitude
Rises 00:08:20 0° 292° (WNW) 3,576 7.5 -22.0°
Reaches altitude 10° 00:10:53 10° 306° (NW) 2,495 6.2 -22.6°
Maximum altitude 00:15:03 29° 9° (N) 1,779 4.4 -23.6°
Enters shadow 00:18:39 19° 54° (NE) 2,833 5.1 -24.4°
